Starlink 32233

operational
NORAD ID: 60434 Int'l Des: 2024-144 Owner: SPXS Country: US Constellation: starlink
LEOCIRCULAR

Starlink 32233について

説明を読み込み中...

リアルタイム位置

3D地球を読み込み中...

次回通過

高度履歴

Altitude vs Time

uPlot chart will show altitude changes over time

軌道要素

1 60434U 24144K 25304.12926489 .00000342 00000-0 23660-4 0 9997
2 60434 53.1602 98.8738 0001049 92.5579 267.5542 15.30195490 69474
Epoch: Oct 31, 2025 • Age: 16 hours

現在のステータス

高度 481.5 km
速度 7.62 km/s
衛星直下点 -20.92°S, 119.05°E
打ち上げ日 Aug 12, 2024
運用期間 1.2 years
タイプ internet

技術仕様

分類 Payload
質量 730.00 kg
乾燥質量 700.00 kg
総質量 730.00 kg
長さ 0.30 m
直径 4.10 m
スパン 29.00 m
形状 Box + pan
製造者 SPXS
バスタイプ Starlink V2M
フェーズステータス In Orbit
所有者/国 SPXS/US

大規模コンステレーション

Loading constellations...